Regional Weather Roundup
Issued by NWS Midland/Odessa, TX

Skip options and go directly to product.
Home | Oldest Version | Next Version | Current Version | All | Text Only | Save Text | Print | Product List | Glossary On

Skip product version selection by date and time.   
759
ASUS44 KMAF 010502
RWRMAF
MIDLAND AREA WEATHER ROUNDUP
NATIONAL WEATHER SERVICE MIDLAND TX
1200 AM CDT MON SEP 01 2014

...IN SOUTHWEST TEXAS AND SOUTHEAST NEW MEXICO...

CITY           SKY/WX    TMP DP  RH WIND       PRES   REMARKS
ALPINE         CLEAR     78  59  52 SW8       30.11R
ANDREWS        FAIR      83  57  40 S15G24    29.93S
ARTESIA        NOT AVBL
BIG SPRING     CLEAR     84  62  46 SE20      29.93S
CARLSBAD       PTCLDY    88  49  25 SE8       29.88S
DRYDEN           N/A     90  63  40 SE17G23   29.90S
FORT STOCKTON  PTCLDY    82  62  50 SE16G26   29.94R
GUAD PASS      PTCLDY    81  44  27 W13       30.11S
HOBBS          CLEAR     82  55  39 S23       29.95S
MARFA          CLEAR     73  54  49 SE6       30.10S
MIDLAND AIRPK  NOT AVBL
MIDLAND INTL   CLEAR     85  62  46 S21       29.92S
ODESSA         CLEAR     84  60  44 S18       29.94R
PECOS          CLEAR     85  60  41 SE15G22   29.87R
PRESIDIO       FAIR      90  50  25 NE8       29.90R
SEMINOLE       CLEAR     83  53  34 S14G20    29.94R
SNYDER         CLEAR     83  64  51 S14G21    29.90S
WINK           CLEAR     86  61  42 SE23G29   29.89R
$$
...OTHER STATIONS IN TEXAS...

CITY           SKY/WX    TMP DP  RH WIND       PRES   REMARKS
ABILENE        CLEAR     86  63  45 S16       29.89F
AMARILLO       CLEAR     82  55  39 S17       29.86S
AUSTIN         PTCLDY    79  74  84 S8        29.95R
BROWNSVILLE    CLEAR     82  79  90 SE8       29.92F
CORPUS CHRISTI PTCLDY    82  77  84 SE9       29.93S
DALLAS FTW     CLEAR     83  70  64 S17G25    29.88R
DEL RIO        CLEAR     89  65  44 SE8       29.87R
EL PASO        CLEAR     89  41  18 W10       29.97R
HOUSTON INT    PTCLDY    77  75  94 SE6       29.97S
LUBBOCK        CLEAR     83  58  42 S23G31    29.90R
SAN ANGELO     CLEAR     82  65  56 S7        29.91F
SAN ANTONIO    PTCLDY    82  73  74 SE10      29.96R
WACO           CLEAR     81  70  69 S21G28    29.92S
WICHITA FALLS  NOT AVBL
$$
...OTHER LOCATIONS IN NEW MEXICO...

CITY           SKY/WX    TMP DP  RH WIND       PRES   REMARKS
ALAMAGORDO     CLEAR     77  39  25 S6        29.98R
ALBUQUERQUE    CLEAR     82  34  17 W15       30.03R
CANNON AFB     NOT AVBL
CLOVIS           N/A     70  43  37 S6        29.96R
HOLLOMAN AFB   NOT AVBL
ROSWELL        CLEAR     76  46  34 SW8       29.90R
RUIDOSO        CLEAR     66  37  34 SW12      30.19S
SANTA FE       CLEAR     70  32  24 W5        30.09R
TRUTH OR CONSE CLEAR     76  36  23 S6        30.02R
TUCUMCARI      CLEAR     78  39  24 W9        29.88R
$$

USA.gov is the U.S. government's official web portal to all federal, state and local government web resources and services.